LEMUR 2 CAEL

导读 | 豆包AI

LEMUR 2 CAEL是美国Spire Global公司旗下狐猴2型(LEMUR-2)纳卫星星座中的一颗商用遥感卫星,于2024年1月31日发射入轨。作为该星座的组网卫星,它延续了系列卫星的技术设计,依托低轨星座实现全球船舶自动识别系统跟踪和气象数据监测服务,助力商业海事运营和全球气象观测,提升了星座数据采集覆盖能力与服务精度。

基本信息
目录编号:
58903
目录名称:
LEMUR 2 CAEL
国际标识:
2024-022E
轨道中心:
EARTH
卫星名称:
LEMUR 2 CAEL
卫星全名:
--
卫星状态:
在轨 (已飞行821 天)
发射日期:
2024-01-31 UTC
国别 :
美国 (US)
星等 :
--
轨道信息
数据来源 国际轨道数据 AOE轨道数据
星历时间 2026-04-30T11:16:57+0800
1天前
查看轨道信息
2026-05-01T05:00:00+0800
9小时前
查看轨道信息
半长轴 6825.927km 6825.919km
偏心率 0.0006296 0.0006222
轨道倾角 97.415° 97.415°
近地点辐角 266.860° 263.252°
升交点赤经 330.448° 331.194°
平近点角 93.193° 225.371°
近地点 443.492km 443.534km
远地点 452.088km 452.03km
周期 93.541分钟 93.541分钟
每日圈数 15.394313 15.39434
详细信息
使用方式:
暂无
2D轨道图
3D轨道图
轨道高度分析图
轨道倾角分析图
轨道综合分析图
查看轨道综合分析图